| time (UTC) | temp C | wind direction | speed KPH | gust KPH | rain 1hr cm | rain 24hr cm | rain mn cm | humidity % | barometer mb |
| 20260509091551 | 10 | 167 | 3.2 | 16.1 | 0.00 | 0.00 | 0.00 | 86 | 1001.2 |
| 20260509090005 | 10 | 166 | 4.8 | 17.7 | 0.00 | 0.00 | 0.00 | 86 | 1001.5 |
| 20260509084539 | 10 | 204 | 3.2 | 11.3 | 0.00 | 0.00 | 0.00 | 86 | 1001.7 |
| 20260509083009 | 10 | 173 | 4.8 | 12.9 | 0.00 | 0.00 | 0.00 | 85 | 1001.9 |
| 20260509081541 | 10 | 177 | 3.2 | 11.3 | 0.00 | 0.00 | 0.00 | 84 | 1002.2 |
| 20260509080051 | 9 | 172 | 1.6 | 9.7 | 0.00 | 0.00 | 0.00 | 81 | 1002.3 |
| 20260509074536 | 9 | 187 | 1.6 | 16.1 | 0.00 | 0.00 | 0.00 | 78 | 1002.4 |
| 20260509073105 | 9 | 219 | 3.2 | 14.5 | 0.00 | 0.00 | 0.00 | 73 | 1002.5 |
| 20260509071518 | 9 | 185 | 1.6 | 9.7 | 0.00 | 0.00 | 0.00 | 66 | 1002.8 |
| 20260509070039 | 9 | 155 | 0.0 | 9.7 | 0.00 | 0.00 | 0.00 | 64 | 1002.9 |
| 20260509064503 | 9 | 178 | 3.2 | 12.9 | 0.00 | 0.00 | 0.00 | 62 | 1002.9 |
| 20260509063032 | 9 | 147 | 3.2 | 12.9 | 0.00 | 0.00 | 0.00 | 60 | 1003.2 |
| 20260509061607 | 8 | 161 | 4.8 | 12.9 | 0.00 | 0.00 | 0.00 | 57 | 1003.4 |
| 20260509060017 | 8 | 164 | 8.0 | 12.9 | 0.00 | 0.00 | 0.00 | 57 | 1003.4 |
| 20260509054548 | 7 | 190 | 4.8 | 19.3 | 0.00 | 0.00 | 0.00 | 60 | 1003.7 |
| 20260509053015 | 7 | 168 | 3.2 | 11.3 | 0.00 | 0.00 | 0.00 | 59 | 1003.7 |
| 20260509051551 | 7 | 173 | 3.2 | 11.3 | 0.00 | 0.00 | 0.00 | 59 | 1003.6 |
| 20260509044531 | 7 | 156 | 4.8 | 11.3 | 0.00 | 0.00 | 0.00 | 61 | 1003.9 |
| 20260509043001 | 7 | 133 | 1.6 | 8.0 | 0.00 | 0.00 | 0.00 | 60 | 1004.0 |
| 20260509041600 | 7 | 151 | 0.0 | 4.8 | 0.00 | 0.00 | 0.00 | 59 | 1004.1 |
| 20260509040044 | 7 | 142 | 1.6 | 6.4 | 0.00 | 0.00 | 0.00 | 59 | 1004.2 |
| 20260509034508 | 7 | 151 | 0.0 | 4.8 | 0.00 | 0.00 | 0.00 | 58 | 1004.4 |
| 20260509033047 | 7 | 151 | 1.6 | 8.0 | 0.00 | 0.00 | 0.00 | 59 | 1004.6 |
| 20260509031521 | 8 | 157 | 0.0 | 8.0 | 0.00 | 0.00 | 0.00 | 57 | 1004.6 |
| 20260509030034 | 8 | 157 | 0.0 | 11.3 | 0.00 | 0.00 | 0.00 | 56 | 1004.8 |
| 20260509024507 | 8 | 161 | 0.0 | 8.0 | 0.00 | 0.00 | 0.00 | 57 | 1005.0 |
| 20260509023103 | 9 | 163 | 0.0 | 6.4 | 0.00 | 0.00 | 0.00 | 57 | 1005.2 |
| 20260509021517 | 9 | 163 | 0.0 | 4.8 | 0.00 | 0.00 | 0.00 | 52 | 1005.1 |
| 20260509020050 | 10 | 153 | 0.0 | 8.0 | 0.00 | 0.00 | 0.00 | 53 | 1005.0 |
| 20260509014518 | 11 | 173 | 0.0 | 4.8 | 0.00 | 0.00 | 0.00 | 51 | 1004.9 |
| 20260509013054 | 11 | 178 | 1.6 | 3.2 | 0.00 | 0.00 | 0.00 | 50 | 1005.0 |
| 20260509011521 | 12 | 180 | 0.0 | 3.2 | 0.00 | 0.00 | 0.00 | 47 | 1004.9 |
| 20260509010042 | 13 | 182 | 0.0 | 3.2 | 0.00 | 0.00 | 0.00 | 44 | 1005.0 |
| 20260509004518 | 13 | 201 | 0.0 | 3.2 | 0.00 | 0.00 | 0.00 | 39 | 1005.1 |
| 20260509003048 | 15 | 202 | 0.0 | 3.2 | 0.00 | 0.00 | 0.00 | 35 | 1005.1 |
| 20260509001519 | 15 | 187 | 3.2 | 8.0 | 0.00 | 0.00 | 0.00 | 35 | 1005.3 |
| 20260509000038 | 15 | 203 | 1.6 | 11.3 | 0.00 | 0.00 | 0.00 | 35 | 1005.4 |
| 20260508234508 | 16 | 234 | 0.0 | 8.0 | 0.00 | 0.00 | 0.00 | 33 | 1005.6 |
| 20260508233045 | 16 | 229 | 3.2 | 11.3 | 0.00 | 0.00 | 0.00 | 36 | 1005.6 |
| 20260508231517 | 16 | 261 | 9.7 | 16.1 | 0.00 | 0.00 | 0.00 | 32 | 1005.8 |
| 20260508230043 | 16 | 202 | 3.2 | 16.1 | 0.00 | 0.00 | 0.00 | 31 | 1005.8 |
| 20260508224514 | 16 | 306 | 1.6 | 11.3 | 0.00 | 0.00 | 0.00 | 31 | 1005.8 |
| 20260508223044 | 16 | 282 | 1.6 | 14.5 | 0.00 | 0.00 | 0.00 | 32 | 1006.0 |
| 20260508221516 | 17 | 299 | 3.2 | 16.1 | 0.00 | 0.00 | 0.00 | 32 | 1006.1 |
| 20260508220035 | 17 | 280 | 4.8 | 19.3 | 0.00 | 0.00 | 0.00 | 31 | 1006.0 |
| 20260508214522 | 18 | 315 | 6.4 | 14.5 | 0.00 | 0.00 | 0.00 | 29 | 1005.9 |
| 20260508213045 | 18 | 245 | 4.8 | 20.9 | 0.00 | 0.00 | 0.00 | 35 | 1006.1 |
| 20260508211527 | 18 | 325 | 6.4 | 19.3 | 0.00 | 0.00 | 0.00 | 31 | 1006.2 |
| 20260508210035 | 18 | 308 | 8.0 | 17.7 | 0.00 | 0.00 | 0.00 | 31 | 1006.3 |
| 20260508204505 | 18 | 355 | 1.6 | 16.1 | 0.00 | 0.00 | 0.00 | 30 | 1006.3 |
| 20260508203039 | 18 | 164 | 4.8 | 19.3 | 0.00 | 0.00 | 0.00 | 37 | 1006.5 |
| 20260508201509 | 18 | 252 | 8.0 | 19.3 | 0.00 | 0.00 | 0.00 | 34 | 1006.5 |
| 20260508200023 | 18 | 223 | 6.4 | 19.3 | 0.00 | 0.00 | 0.00 | 30 | 1007.0 |
| 20260508194553 | 18 | 225 | 12.9 | 27.4 | 0.00 | 0.00 | 0.00 | 36 | 1007.1 |
| 20260508193020 | 17 | 265 | 8.0 | 22.5 | 0.00 | 0.00 | 0.00 | 36 | 1007.3 |
| 20260508191557 | 17 | 186 | 4.8 | 12.9 | 0.00 | 0.00 | 0.00 | 37 | 1007.2 |
| 20260508190013 | 17 | 289 | 6.4 | 19.3 | 0.00 | 0.00 | 0.00 | 34 | 1007.4 |
| 20260508184541 | 17 | 225 | 6.4 | 14.5 | 0.00 | 0.00 | 0.00 | 35 | 1007.5 |
| 20260508183020 | 16 | 342 | 3.2 | 17.7 | 0.00 | 0.00 | 0.00 | 36 | 1007.7 |
| 20260508181600 | 16 | 256 | 6.4 | 14.5 | 0.00 | 0.00 | 0.00 | 35 | 1007.8 |
| 20260508174530 | 17 | 216 | 6.4 | 16.1 | 0.00 | 0.00 | 0.00 | 42 | 1008.0 |
| 20260508173003 | 16 | 205 | 1.6 | 11.3 | 0.00 | 0.00 | 0.00 | 42 | 1008.2 |
| 20260508171533 | 17 | 290 | 1.6 | 16.1 | 0.00 | 0.00 | 0.00 | 41 | 1008.5 |
| 20260508170054 | 16 | 227 | 8.0 | 19.3 | 0.00 | 0.00 | 0.00 | 42 | 1008.8 |
| 20260508164513 | 16 | 241 | 6.4 | 16.1 | 0.00 | 0.00 | 0.00 | 38 | 1009.0 |
| 20260508163042 | 16 | 165 | 3.2 | 12.9 | 0.00 | 0.00 | 0.00 | 45 | 1009.2 |
| 20260508161512 | 16 | 153 | 0.0 | 14.5 | 0.00 | 0.00 | 0.00 | 47 | 1009.2 |
| 20260508160025 | 16 | 174 | 4.8 | 12.9 | 0.00 | 0.00 | 0.00 | 39 | 1009.3 |
| 20260508154608 | 16 | 180 | 6.4 | 12.9 | 0.00 | 0.00 | 0.00 | 48 | 1009.5 |
| 20260508153017 | 15 | 152 | 3.2 | 12.9 | 0.00 | 0.00 | 0.00 | 44 | 1009.5 |
| 20260508151543 | 15 | 200 | 3.2 | 12.9 | 0.00 | 0.00 | 0.00 | 46 | 1009.6 |
| 20260508150056 | 15 | 173 | 3.2 | 12.9 | 0.00 | 0.00 | 0.00 | 48 | 1009.7 |
| 20260508144521 | 14 | 240 | 6.4 | 16.1 | 0.00 | 0.00 | 0.00 | 47 | 1009.9 |
| 20260508143050 | 14 | 198 | 4.8 | 16.1 | 0.00 | 0.00 | 0.00 | 45 | 1009.9 |
| 20260508141523 | 13 | 204 | 3.2 | 12.9 | 0.00 | 0.00 | 0.00 | 55 | 1010.0 |
| 20260508140026 | 12 | 234 | 3.2 | 11.3 | 0.00 | 0.00 | 0.00 | 61 | 1010.0 |
| 20260508134621 | 12 | 160 | 3.2 | 8.0 | 0.00 | 0.00 | 0.00 | 65 | 1010.0 |
| 20260508133027 | 10 | 209 | 1.6 | 6.4 | 0.00 | 0.00 | 0.00 | 68 | 1010.1 |
| 20260508131548 | 9 | 171 | 1.6 | 6.4 | 0.00 | 0.00 | 0.00 | 75 | 1010.2 |
| 20260508130055 | 7 | 184 | 0.0 | 8.0 | 0.00 | 0.00 | 0.00 | 82 | 1010.4 |
| 20260508124523 | 6 | 170 | 0.0 | 4.8 | 0.00 | 0.00 | 0.00 | 89 | 1010.6 |
| 20260508123051 | 5 | 153 | 1.6 | 8.0 | 0.00 | 0.00 | 0.00 | 91 | 1010.4 |
| 20260508121515 | 3 | 144 | 0.0 | 3.2 | 0.00 | 0.00 | 0.00 | 91 | 1010.3 |
| 20260508120034 | 2 | 124 | 0.0 | 6.4 | 0.00 | 0.00 | 0.00 | 89 | 1010.1 |
| 20260508114505 | 1 | 66 | 0.0 | 3.2 | 0.00 | 0.00 | 0.00 | 87 | 1010.0 |
| 20260508113039 | 0 | 15 | 0.0 | 0.0 | 0.00 | 0.00 | 0.00 | 86 | 1009.8 |
| 20260508111509 | 0 | 15 | 0.0 | 0.0 | 0.00 | 0.00 | 0.00 | 85 | 1009.9 |
| 20260508110027 | 0 | 15 | 0.0 | 0.0 | 0.00 | 0.00 | 0.00 | 85 | 1010.0 |
| 20260508104601 | 0 | 15 | 0.0 | 0.0 | 0.00 | 0.00 | 0.00 | 85 | 1009.7 |
| 20260508103036 | 1 | 15 | 0.0 | 0.0 | 0.00 | 0.00 | 0.00 | 84 | 1009.6 |
| 20260508101508 | 1 | 15 | 0.0 | 0.0 | 0.00 | 0.00 | 0.00 | 84 | 1009.8 |
| 20260508100023 | 1 | 15 | 0.0 | 0.0 | 0.00 | 0.00 | 0.00 | 84 | 1009.9 |
| 20260508094608 | 1 | 15 | 0.0 | 0.0 | 0.00 | 0.00 | 0.00 | 84 | 1009.8 |
| 20260508093030 | 1 | 15 | 0.0 | 0.0 | 0.00 | 0.00 | 0.00 | 84 | 1009.9 |